User: anonymous   Login
Location: Unspecified
(0.0000°N, 0.0000°E)
Time: 20:44:52
(UTC+00:00)
Language:

STARLINK-3661 - Orbit

View from above orbital plane
View from above orbital plane
View from above satellite
View from above satellite

Ground track
Ground track

The orbit is defined by the following mean orbital elements,

1 52129U          26145.51729865 +.00000000 +00000-0 +39487-3 0 00007
2 52129  53.2112  84.2283 0001426  87.8069 272.3087 15.08803364    00
Epoch (UTC): 25 May 2026 12:24:54
Eccentricity: 0.0001426
inclination: 53.2112°
perigee height: 539 km
apogee height: 541 km
right ascension of ascending node: 84.2283°
argument of perigee: 87.8069°
revolutions per day: 15.08803364
mean anomaly at epoch: 272.3087°

The dashed part of the orbit path shows where the satellite is in the earth's shadow,  

DLR